Location: Hopville
(44.8032°N, 123.1329°W)
Time: 17:29:31
(UTC+00:00)

Cosmos 1346 Rocket - Pass Details

Date: 24 January 2021
Orbit: 532 x 546 km, 81.2° (Epoch: 01 March)

Event Time Altitude Azimuth Distance (km) Brightness Sun altitude
Exits shadow 14:12:49 - 349° (N) 2,643 6.1 -15.4°
Reaches altitude 10° 14:14:50 10° 350° (N) 1,813 5.2 -15.0°
Maximum altitude 14:18:50 87° 76° (ENE) 550 2.8 -14.3°
Drops below altitude 10° 14:22:49 10° 170° (S) 1,806 5.8 -13.6°
Sets 14:24:58 0° 170° (S) 2,695 6.7 -13.3°
